User: anonymous   Login
Location: Melbourne
(37.8170°S, 144.9670°E)
Time: 20:44:35
(UTC+10:00)
Language:

Cosmos 962 Rocket - Orbit

View from above orbital plane
View from above orbital plane
View from above satellite
View from above satellite

Ground track
Ground track

The orbit data is extracted from the following two-line orbital elements,

1 10461U 77107B   16149.90257211 +.00000044 +00000-0 +28595-4 0  9993
2 10461 082.9478 298.6767 0034275 141.9600 330.3884 13.76759432937611
Epoch (UTC): 28 May 2016 21:39:42
Eccentricity: 0.0034275
inclination: 82.9478°
perigee height: 950 km
apogee height: 1000 km
right ascension of ascending node: 298.6767°
argument of perigee: 141.9600°
revolutions per day: 13.76759432
mean anomaly at epoch: 330.3884°
orbit number at epoch: 93761

The dashed part of the orbit path shows where the satellite is in the earth's shadow,  

DLR